| time (UTC) | temp C | wind direction | speed KPH | gust KPH | rain 1hr cm | rain 24hr cm | rain mn cm | humidity % | barometer mb |
| 20260906122216 | 21 | 303 | 4.8 | 6.4 | 0.00 | 0.00 | 0.00 | 97 | 1061.5 |
| 20260906121217 | 21 | 340 | 3.2 | 6.4 | 0.00 | 0.00 | 0.00 | 96 | 1061.4 |
| 20260906115116 | 21 | 51 | 4.8 | 9.7 | 0.00 | 0.00 | 0.00 | 95 | 1061.3 |
| 20260906114116 | 21 | 47 | 1.6 | 4.8 | 0.00 | 0.00 | 0.00 | 95 | 1061.4 |
| 20260906113116 | 21 | 30 | 4.8 | 9.7 | 0.00 | 0.00 | 0.00 | 95 | 1061.2 |
| 20260906112116 | 21 | 22 | 6.4 | 12.9 | 0.00 | 0.00 | 0.00 | 95 | 1060.8 |
| 20260906111114 | 21 | 46 | 6.4 | 11.3 | 0.00 | 0.00 | 0.00 | 95 | 1060.6 |
| 20260906110114 | 21 | 50 | 3.2 | 8.0 | 0.00 | 0.00 | 0.00 | 95 | 1060.7 |
| 20260906104114 | 21 | 45 | 0.0 | 1.6 | 0.00 | 0.00 | 0.00 | 93 | 1060.3 |
| 20260906103213 | 22 | 45 | 3.2 | 6.4 | 0.00 | 0.00 | 0.00 | 94 | 1060.1 |
| 20260906102214 | 22 | 45 | 1.6 | 4.8 | 0.00 | 0.00 | 0.00 | 93 | 1060.1 |
| 20260906100316 | 22 | 45 | 1.6 | 6.4 | 0.00 | 0.00 | 0.00 | 92 | 1059.9 |
| 20260906094317 | 22 | 5 | 3.2 | 9.7 | 0.00 | 0.00 | 0.00 | 92 | 1059.4 |
| 20260906091513 | 23 | 26 | 4.8 | 6.4 | 0.00 | 0.00 | 0.00 | 90 | 1059.4 |
| 20260906090612 | 23 | 7 | 3.2 | 6.4 | 0.00 | 0.00 | 0.00 | 90 | 1059.4 |
| 20260906085614 | 23 | 58 | 3.2 | 8.0 | 0.00 | 0.00 | 0.00 | 91 | 1059.2 |
| 20260906085516 | 23 | 34 | 1.6 | 6.4 | 0.00 | 0.00 | 0.00 | 90 | 1059.3 |
| 20260906084614 | 23 | 45 | 0.0 | 1.6 | 0.00 | 0.00 | 0.00 | 89 | 1059.4 |
| 20260906082617 | 23 | 16 | 1.6 | 4.8 | 0.00 | 0.00 | 0.00 | 89 | 1059.3 |
| 20260906081614 | 23 | 12 | 0.0 | 4.8 | 0.00 | 0.00 | 0.00 | 90 | 1059.3 |
| 20260906075614 | 23 | 22 | 1.6 | 4.8 | 0.00 | 0.00 | 0.00 | 89 | 1059.2 |
| 20260906075516 | 24 | 339 | 3.2 | 4.8 | 0.00 | 0.00 | 0.00 | 89 | 1059.2 |
| 20260906074515 | 24 | 358 | 0.0 | 0.0 | 0.00 | 0.00 | 0.00 | 89 | 1059.2 |
| 20260906073514 | 24 | 22 | 1.6 | 3.2 | 0.00 | 0.00 | 0.00 | 88 | 1059.2 |
| 20260906072515 | 25 | 337 | 0.0 | 0.0 | 0.00 | 0.00 | 0.00 | 88 | 1059.2 |
| 20260906072413 | 25 | 337 | 1.6 | 3.2 | 0.00 | 0.00 | 0.00 | 87 | 1059.2 |
| 20260906071414 | 25 | 22 | 0.0 | 0.0 | 0.00 | 0.00 | 0.00 | 88 | 1059.2 |
| 20260906070415 | 25 | 45 | 0.0 | 0.0 | 0.00 | 0.00 | 0.00 | 87 | 1059.2 |
| 20260906065415 | 25 | 45 | 1.6 | 3.2 | 0.00 | 0.00 | 0.00 | 87 | 1059.2 |
| 20260906064415 | 25 | 47 | 0.0 | 1.6 | 0.00 | 0.00 | 0.00 | 86 | 1059.6 |
| 20260906062514 | 26 | 15 | 4.8 | 8.0 | 0.00 | 0.00 | 0.00 | 86 | 1059.6 |
| 20260906053714 | 26 | 36 | 3.2 | 6.4 | 0.00 | 0.00 | 0.00 | 83 | 1059.7 |
| 20260906052813 | 26 | 33 | 4.8 | 8.0 | 0.00 | 0.00 | 0.00 | 84 | 1059.5 |
| 20260906051814 | 27 | 67 | 3.2 | 4.8 | 0.00 | 0.00 | 0.00 | 82 | 1059.6 |
| 20260906050815 | 27 | 28 | 3.2 | 6.4 | 0.00 | 0.00 | 0.00 | 81 | 1059.5 |
| 20260906045827 | 27 | 47 | 1.6 | 4.8 | 0.00 | 0.00 | 0.00 | 81 | 1059.4 |
| 20260906045726 | 27 | 48 | 8.0 | 12.9 | 0.00 | 0.00 | 0.00 | 82 | 1059.4 |
| 20260906044726 | 27 | 4 | 3.2 | 8.0 | 0.00 | 0.00 | 0.00 | 82 | 1059.2 |
| 20260906043725 | 27 | 14 | 3.2 | 4.8 | 0.00 | 0.00 | 0.00 | 82 | 1059.2 |
| 20260906042726 | 26 | 33 | 3.2 | 6.4 | 0.00 | 0.00 | 0.00 | 83 | 1059.2 |
| 20260906040725 | 25 | 45 | 0.0 | 1.6 | 0.00 | 0.00 | 0.00 | 83 | 1059.0 |
| 20260906035726 | 25 | 45 | 0.0 | 0.0 | 0.00 | 0.00 | 0.00 | 83 | 1059.0 |
| 20260906034726 | 26 | 45 | 0.0 | 0.0 | 0.00 | 0.00 | 0.00 | 83 | 1058.8 |
| 20260906033825 | 26 | 45 | 0.0 | 0.0 | 0.00 | 0.00 | 0.00 | 83 | 1058.8 |
| 20260906033724 | 26 | 45 | 0.0 | 0.0 | 0.00 | 0.00 | 0.00 | 82 | 1058.8 |
| 20260906031725 | 26 | 45 | 0.0 | 0.0 | 0.00 | 0.00 | 0.00 | 82 | 1058.6 |
| 20260906030726 | 26 | 45 | 0.0 | 0.0 | 0.00 | 0.00 | 0.00 | 82 | 1058.3 |
| 20260906025824 | 26 | 45 | 0.0 | 0.0 | 0.00 | 0.00 | 0.00 | 82 | 1058.4 |
| 20260906024924 | 26 | 45 | 0.0 | 0.0 | 0.00 | 0.00 | 0.00 | 80 | 1058.2 |
| 20260906022926 | 26 | 45 | 0.0 | 0.0 | 0.00 | 0.00 | 0.00 | 79 | 1058.2 |
| 20260906021926 | 26 | 45 | 0.0 | 0.0 | 0.00 | 0.00 | 0.00 | 79 | 1058.0 |
| 20260906021025 | 26 | 45 | 0.0 | 0.0 | 0.00 | 0.00 | 0.00 | 79 | 1057.9 |
| 20260906020940 | 26 | 45 | 0.0 | 0.0 | 0.00 | 0.00 | 0.00 | 78 | 1057.9 |
| 20260906015940 | 26 | 45 | 0.0 | 0.0 | 0.00 | 0.00 | 0.00 | 77 | 1057.9 |
| 20260906015827 | 26 | 45 | 0.0 | 0.0 | 0.00 | 0.00 | 0.00 | 77 | 1057.7 |
| 20260906014843 | 27 | 45 | 0.0 | 0.0 | 0.00 | 0.00 | 0.00 | 77 | 1057.6 |
| 20260906014725 | 27 | 45 | 0.0 | 0.0 | 0.00 | 0.00 | 0.00 | 77 | 1057.6 |
| 20260906014626 | 27 | 45 | 0.0 | 0.0 | 0.00 | 0.00 | 0.00 | 77 | 1057.5 |
| 20260906013626 | 27 | 45 | 0.0 | 0.0 | 0.00 | 0.00 | 0.00 | 76 | 1057.5 |
| 20260906012642 | 27 | 45 | 0.0 | 0.0 | 0.00 | 0.00 | 0.00 | 73 | 1057.4 |
| 20260906010627 | 28 | 45 | 0.0 | 0.0 | 0.00 | 0.00 | 0.00 | 70 | 1057.3 |
| 20260906005624 | 28 | 45 | 0.0 | 0.0 | 0.00 | 0.00 | 0.00 | 68 | 1057.1 |
| 20260906003625 | 30 | 45 | 0.0 | 0.0 | 0.00 | 0.00 | 0.00 | 62 | 1057.1 |
| 20260906003526 | 30 | 45 | 0.0 | 0.0 | 0.00 | 0.00 | 0.00 | 62 | 1057.2 |
| 20260906002525 | 31 | 45 | 0.0 | 0.0 | 0.00 | 0.00 | 0.00 | 59 | 1057.0 |
| 20260906001525 | 31 | 45 | 0.0 | 0.0 | 0.00 | 0.00 | 0.00 | 56 | 1057.1 |
| 20260905235527 | 33 | 45 | 0.0 | 0.0 | 0.00 | 0.00 | 0.00 | 51 | 1057.2 |
| 20260905234625 | 33 | 45 | 0.0 | 0.0 | 0.00 | 0.00 | 0.00 | 51 | 1057.1 |
| 20260905233624 | 34 | 360 | 0.0 | 0.0 | 0.00 | 0.00 | 0.00 | 50 | 1057.1 |
| 20260905232526 | 34 | 15 | 1.6 | 6.4 | 0.00 | 0.00 | 0.00 | 49 | 1056.9 |
| 20260905231527 | 35 | 16 | 3.2 | 6.4 | 0.00 | 0.00 | 0.00 | 49 | 1056.9 |
| 20260905230526 | 35 | 32 | 0.0 | 3.2 | 0.00 | 0.00 | 0.00 | 47 | 1056.8 |
| 20260905225625 | 35 | 40 | 1.6 | 3.2 | 0.00 | 0.00 | 0.00 | 47 | 1056.9 |
| 20260905223625 | 36 | 44 | 6.4 | 12.9 | 0.00 | 0.00 | 0.00 | 39 | 1056.9 |
| 20260905222627 | 37 | 288 | 4.8 | 9.7 | 0.00 | 0.00 | 0.00 | 38 | 1056.8 |
| 20260905221624 | 37 | 318 | 4.8 | 6.4 | 0.00 | 0.00 | 0.00 | 38 | 1056.6 |
| 20260905215724 | 37 | 32 | 3.2 | 6.4 | 0.00 | 0.00 | 0.00 | 40 | 1056.7 |
| 20260905210724 | 37 | 242 | 0.0 | 4.8 | 0.00 | 0.00 | 0.00 | 40 | 1057.1 |
| 20260905210626 | 37 | 62 | 0.0 | 6.4 | 0.00 | 0.00 | 0.00 | 40 | 1057.1 |
| 20260905205724 | 36 | 298 | 3.2 | 6.4 | 0.00 | 0.00 | 0.00 | 41 | 1057.0 |
| 20260905204726 | 37 | 297 | 0.0 | 4.8 | 0.00 | 0.00 | 0.00 | 39 | 1057.1 |
| 20260905203743 | 37 | 282 | 6.4 | 8.0 | 0.00 | 0.00 | 0.00 | 39 | 1057.1 |
| 20260905202726 | 38 | 288 | 4.8 | 9.7 | 0.00 | 0.00 | 0.00 | 37 | 1057.4 |
| 20260905201727 | 37 | 286 | 4.8 | 11.3 | 0.00 | 0.00 | 0.00 | 39 | 1057.5 |
| 20260905200824 | 37 | 28 | 4.8 | 8.0 | 0.00 | 0.00 | 0.00 | 40 | 1057.7 |
| 20260905194925 | 37 | 345 | 1.6 | 6.4 | 0.00 | 0.00 | 0.00 | 41 | 1057.6 |
| 20260905193924 | 36 | 285 | 3.2 | 8.0 | 0.00 | 0.00 | 0.00 | 42 | 1057.8 |
| 20260905193024 | 36 | 203 | 1.6 | 4.8 | 0.00 | 0.00 | 0.00 | 43 | 1057.7 |
| 20260905192025 | 36 | 237 | 3.2 | 12.9 | 0.00 | 0.00 | 0.00 | 42 | 1058.0 |
| 20260905191123 | 37 | 327 | 4.8 | 8.0 | 0.00 | 0.00 | 0.00 | 43 | 1058.2 |
| 20260905190127 | 36 | 334 | 3.2 | 9.7 | 0.00 | 0.00 | 0.00 | 42 | 1058.3 |
| 20260905185124 | 36 | 247 | 0.0 | 0.0 | 0.00 | 0.00 | 0.00 | 44 | 1058.4 |
| 20260905184123 | 36 | 225 | 8.0 | 11.3 | 0.00 | 0.00 | 0.00 | 43 | 1058.5 |
| 20260905183125 | 36 | 278 | 6.4 | 9.7 | 0.00 | 0.00 | 0.00 | 42 | 1058.7 |
| 20260905182126 | 36 | 347 | 3.2 | 8.0 | 0.00 | 0.00 | 0.00 | 43 | 1058.8 |
| 20260905181126 | 36 | 228 | 9.7 | 17.7 | 0.00 | 0.00 | 0.00 | 44 | 1058.9 |
| 20260905181024 | 36 | 230 | 9.7 | 12.9 | 0.00 | 0.00 | 0.00 | 44 | 1058.9 |
| 20260905180023 | 36 | 279 | 6.4 | 8.0 | 0.00 | 0.00 | 0.00 | 43 | 1058.9 |
| 20260905175042 | 36 | 300 | 6.4 | 11.3 | 0.00 | 0.00 | 0.00 | 45 | 1058.9 |
| 20260905173123 | 35 | 1 | 6.4 | 9.7 | 0.00 | 0.00 | 0.00 | 46 | 1059.1 |
| 20260905173041 | 35 | 268 | 6.4 | 9.7 | 0.00 | 0.00 | 0.00 | 47 | 1059.2 |
| 20260905172024 | 35 | 239 | 6.4 | 11.3 | 0.00 | 0.00 | 0.00 | 47 | 1059.3 |
| 20260905170026 | 36 | 197 | 3.2 | 8.0 | 0.00 | 0.00 | 0.00 | 46 | 1059.5 |
| 20260905165123 | 36 | 270 | 1.6 | 3.2 | 0.00 | 0.00 | 0.00 | 48 | 1059.6 |
| 20260905164123 | 35 | 356 | 3.2 | 8.0 | 0.00 | 0.00 | 0.00 | 50 | 1059.8 |
| 20260905163125 | 34 | 225 | 3.2 | 6.4 | 0.00 | 0.00 | 0.00 | 52 | 1059.7 |
| 20260905162223 | 34 | 261 | 4.8 | 6.4 | 0.00 | 0.00 | 0.00 | 52 | 1059.8 |
| 20260905161322 | 33 | 38 | 4.8 | 11.3 | 0.00 | 0.00 | 0.00 | 54 | 1060.0 |
| 20260905160323 | 33 | 237 | 4.8 | 9.7 | 0.00 | 0.00 | 0.00 | 53 | 1060.1 |
| 20260905154340 | 33 | 313 | 4.8 | 6.4 | 0.00 | 0.00 | 0.00 | 54 | 1060.1 |
| 20260905154226 | 33 | 245 | 6.4 | 8.0 | 0.00 | 0.00 | 0.00 | 55 | 1060.1 |
| 20260905153225 | 33 | 237 | 1.6 | 6.4 | 0.00 | 0.00 | 0.00 | 55 | 1060.3 |
| 20260905151324 | 32 | 253 | 3.2 | 6.4 | 0.00 | 0.00 | 0.00 | 60 | 1060.2 |
| 20260905151227 | 32 | 332 | 1.6 | 4.8 | 0.00 | 0.00 | 0.00 | 61 | 1060.1 |
| 20260905151123 | 31 | 313 | 1.6 | 3.2 | 0.00 | 0.00 | 0.00 | 61 | 1060.2 |
| 20260905150125 | 31 | 234 | 6.4 | 9.7 | 0.00 | 0.00 | 0.00 | 61 | 1060.2 |
| 20260905150024 | 31 | 229 | 3.2 | 4.8 | 0.00 | 0.00 | 0.00 | 61 | 1060.3 |
| 20260905145027 | 31 | 244 | 1.6 | 3.2 | 0.00 | 0.00 | 0.00 | 62 | 1060.1 |
| 20260905144123 | 30 | 225 | 4.8 | 8.0 | 0.00 | 0.00 | 0.00 | 64 | 1060.1 |
| 20260905143124 | 30 | 268 | 0.0 | 3.2 | 0.00 | 0.00 | 0.00 | 66 | 1060.2 |
| 20260905141125 | 30 | 247 | 1.6 | 3.2 | 0.00 | 0.00 | 0.00 | 67 | 1060.2 |
| 20260905140124 | 30 | 225 | 0.0 | 1.6 | 0.00 | 0.00 | 0.00 | 69 | 1060.4 |
| 20260905135125 | 30 | 225 | 3.2 | 4.8 | 0.00 | 0.00 | 0.00 | 73 | 1060.4 |
| 20260905133224 | 28 | 225 | 1.6 | 3.2 | 0.00 | 0.00 | 0.00 | 87 | 1060.4 |
| 20260905133124 | 28 | 197 | 0.0 | 3.2 | 0.00 | 0.00 | 0.00 | 88 | 1060.4 |
| 20260905132124 | 27 | 157 | 0.0 | 0.0 | 0.00 | 0.00 | 0.00 | 92 | 1060.4 |
| 20260905131224 | 26 | 157 | 0.0 | 0.0 | 0.00 | 0.00 | 0.00 | 96 | 1060.3 |
| 20260905125323 | 23 | 157 | 0.0 | 0.0 | 0.00 | 0.00 | 0.00 | 96 | 1060.1 |
| 20260905124323 | 23 | 157 | 0.0 | 0.0 | 0.00 | 0.00 | 0.00 | 97 | 1060.2 |
| 20260905123324 | 23 | 157 | 0.0 | 0.0 | 0.00 | 0.00 | 0.00 | 96 | 1060.1 |
| 20260905123224 | 23 | 157 | 0.0 | 0.0 | 0.00 | 0.00 | 0.00 | 97 | 1060.2 |